Charlotte, NC

5:17 AM EDT on August 30, 2016 (GMT -0400)
Concord Regional

Weather History for KJQF - August, 2014

Change the Weather History Date:

Friday, August 1, 2014

  Actual Average (KCLT) Record (KCLT)
Temperature  
Mean Temperature 68 °F 78 °F  
Max Temperature 69 °F 89 °F 98 °F (1957)
Min Temperature 66 °F 68 °F 58 °F (1966)
Degree Days  
Heating Degree Days 0 0  
Month to date heating degree days 0  
Since 1 June heating degree days 3  
Since 1 July heating degree days 0  
Cooling Degree Days 2 13  
Month to date cooling degree days 13  
Year to date cooling degree days 907  
Since 1 June cooling degree days 744  
Growing Degree Days 18 (Base 50)    
Moisture  
Dew Point 64 °F    
Average Humidity 90    
Maximum Humidity 94    
Minimum Humidity 83    
Precipitation  
Precipitation 0.02 in 0.14 in 2.39 in (2014)
Month to date precipitation 0.14  
Year to date precipitation 24.52  
Snow  
Snow 0.00 in 0.00 in 0.00 in ()
Month to date snowfall 0.0  
Since 1 June snowfall 0.0  
Since 1 July snowfall 0.0  
Snow Depth -    
Sea Level Pressure  
Sea Level Pressure 30.14 in    
Wind  
Wind Speed 5 mph (NNE)    
Max Wind Speed 15 mph    
Max Gust Speed 21 mph    
Visibility 7 miles    
Events Rain , Thunderstorm    
T = Trace of Precipitation, MM = Missing Value Source: NWS Daily Summary

Daily Weather History Graph

Daily Weather History Graph

Search for Another Location

Airport or City:

Trip Planner

Search our weather history database for the weather conditions in past years. The results will help you decide how hot, cold, wet, or windy it might be!

Date:

Astronomy

Aug. 01, 2014 Rise Set
Actual Time 6:31 AM EDT 8:26 PM EDT
Civil Twilight 6:03 AM EDT 8:54 PM EDT
Nautical Twilight 5:29 AM EDT 9:28 PM EDT
Astronomical Twilight 4:53 AM EDT 10:04 PM EDT
Moon 11:40 AM EDT (8/1) 11:24 PM EDT (8/1)
Length of Visible Light 14h 50m
Length of Day
13h 54m
Waxing Crescent, 27% of the Moon is Illuminated
Aug 1
Waxing Crescent
Aug 3
First Quarter
Aug 10
Full
Aug 17
Last Quarter
Aug 25
New

Hourly Weather History & Observations

Time (EDT) Temp. Dew Point Humidity Pressure Visibility Wind Dir Wind Speed Gust Speed Precip Events Conditions
12:15 AM 68.0 °F 66.2 °F 94% 30.18 in 7.0 mi Calm Calm - N/A Rain Rain
12:55 AM 68.0 °F 66.2 °F 94% 30.17 in 10.0 mi North 3.5 mph - N/A   Overcast
1:15 AM 68.0 °F 64.4 °F 88% 30.17 in 10.0 mi Calm Calm - N/A   Overcast
1:35 AM 68.0 °F 64.4 °F 88% 30.16 in 7.0 mi NNE 4.6 mph - N/A Rain Light Rain
1:55 AM 68.0 °F 64.4 °F 88% 30.14 in 7.0 mi North 6.9 mph - N/A Rain Light Rain
2:15 AM 68.0 °F 64.4 °F 88% 30.14 in 7.0 mi North 6.9 mph - N/A Rain Light Rain
2:35 AM 68.0 °F 64.4 °F 88% 30.15 in 5.0 mi North 3.5 mph - N/A Rain Rain
2:55 AM 68.0 °F 64.4 °F 88% 30.16 in 2.0 mi Calm Calm - N/A Rain Heavy Rain
3:15 AM 68.0 °F 64.4 °F 88% 30.16 in 1.5 mi North 5.8 mph - N/A Rain Heavy Rain
3:35 AM 66.2 °F 64.4 °F 94% 30.14 in 7.0 mi North 8.1 mph - N/A Rain , Thunderstorm Light Thunderstorms and Rain
3:55 AM 66.2 °F 62.6 °F 88% 30.13 in 7.0 mi NNE 10.4 mph - N/A Rain Light Rain
4:15 AM 66.2 °F 62.6 °F 88% 30.12 in 10.0 mi NNE 6.9 mph 16.1 mph N/A Rain Light Rain
4:35 AM 66.2 °F 62.6 °F 88% 30.12 in 7.0 mi North 8.1 mph - N/A Rain Light Rain
4:55 AM 66.2 °F 62.6 °F 88% 30.11 in 7.0 mi North 5.8 mph - 0.01 in Rain Light Rain
5:15 AM 66.2 °F 64.4 °F 94% 30.10 in 7.0 mi North 10.4 mph 17.3 mph N/A Rain Rain
5:35 AM 66.2 °F 64.4 °F 94% 30.12 in 4.0 mi NNE 6.9 mph - N/A Rain Heavy Rain
6:15 AM 66.2 °F 62.6 °F 88% 30.11 in 4.0 mi North 15.0 mph 20.7 mph N/A Rain Light Rain
6:35 AM 66.2 °F 62.6 °F 88% 30.11 in 10.0 mi North 12.7 mph 17.3 mph N/A Rain Light Rain
6:55 AM 66.2 °F 64.4 °F 94% 30.11 in 4.0 mi NNE 10.4 mph 18.4 mph N/A Rain Rain
7:55 AM 66.2 °F 64.4 °F 94% 30.14 in 3.0 mi NNE 6.9 mph - N/A Rain Rain
8:55 AM 66.2 °F 64.4 °F 94% 30.15 in 3.0 mi NE 8.1 mph - N/A Rain Rain
9:55 AM 66.2 °F 62.6 °F 88% 30.15 in 3.0 mi NE 8.1 mph - N/A Rain Rain
10:55 AM 66.2 °F 64.4 °F 94% 30.14 in 35.0 mi ENE 8.1 mph 16.1 mph N/A   Overcast
11:59 AM 68.0 °F 64.4 °F 88% 30.14 in 7.0 mi ENE 5.8 mph - N/A   Overcast
12:55 PM 69.8 °F 64.4 °F 83% 30.15 in 7.0 mi ENE 8.1 mph - N/A   Overcast
1:55 PM 69.8 °F 64.4 °F 83% 30.14 in 7.0 mi NE 8.1 mph - N/A   Overcast
2:55 PM 69.8 °F 64.4 °F 83% 30.13 in 10.0 mi North 6.9 mph - N/A   Overcast
3:55 PM 69.8 °F 66.2 °F 88% 30.12 in 10.0 mi North 6.9 mph - N/A   Overcast
4:52 PM 69.8 °F 66.2 °F 88% 30.12 in 10.0 mi North 5.8 mph - N/A   Overcast
5:55 PM 69.8 °F 66.2 °F 88% 30.12 in 5.0 mi NNE 6.9 mph - N/A   Overcast
7:55 PM 68.0 °F 64.4 °F 88% 30.12 in 4.0 mi North 6.9 mph - N/A   Overcast
8:52 PM 68.0 °F 66.2 °F 94% 30.13 in 3.0 mi NNE 5.8 mph - N/A   Overcast
9:52 PM 66.2 °F 64.4 °F 94% 30.15 in 4.0 mi NE 6.9 mph - N/A   Overcast
10:15 PM 66.2 °F 64.4 °F 94% 30.15 in 7.0 mi Calm Calm - N/A   Overcast
10:35 PM 66.2 °F 64.4 °F 94% 30.16 in 10.0 mi Calm Calm - N/A   Overcast
10:55 PM 66.2 °F 64.4 °F 94% 30.16 in 10.0 mi Calm Calm - N/A   Overcast
11:15 PM 66.2 °F 62.6 °F 88% 30.16 in 10.0 mi NNE 3.5 mph - 0.01 in   Overcast
11:35 PM 66.2 °F 62.6 °F 88% 30.15 in 10.0 mi NE 3.5 mph - 0.01 in   Overcast
11:55 PM 66.2 °F 62.6 °F 88% 30.15 in 10.0 mi NE 3.5 mph - 0.01 in   Overcast